This demonstration page uses our WeatherBlox Daily Observations layout. Learn more.

Hourly Observations for January 24, 2021

Temp ( °F °C ) Dew Point ( °F °C ) Humidity (%) Winds ( mph kmh ) Pressure ( in mb ) Visibility ( mi km ) Precip ( " mm )
12:54 am 00:54 Cloudy 28 -2.2 23 -5 81 81 N 5 7 30.01 1016 10 16.0934 0 0
1:31 am 01:31 Cloudy 28 -2.2 23 -5 81 81 NNW 7 11 30.04 1017 10 16.0934 0 0
1:54 am 01:54 Cloudy 28 -2.2 23 -5 81 81 N 6 9 30.01 1016 10 16.0934 0 0
2:27 am 02:27 Cloudy 28 -2.2 23 -5 81 81 N 5 7 30.05 1018 10 16.0934 0 0
2:54 am 02:54 Cloudy 28 -2.2 23 -5 81 81 N 6 9 30.03 1017 10 16.0934 0 0
3:14 am 03:14 Cloudy 27 -2.8 23 -5 85 85 Calm 30.06 1018 10 16.0934 0 0
3:28 am 03:28 Cloudy 27 -2.8 23 -5 85 85 NNW 5 7 30.07 1018 10 16.0934 0 0
3:54 am 03:54 Cloudy 28 -2.2 24 -4.4 85 85 N 9 15 30.04 1017 10 16.0934 0 0
4:01 am 04:01 Cloudy 29 -1.7 24 -4.4 82 82 N 8 13 30.06 1018 9 14.48406 0 0
4:49 am 04:49 Cloudy 28 -2 25 -4 86 86 NNW 6 9 30.07 1018 9 14.48406 0 0
4:54 am 04:54 Cloudy 28 -2.2 24 -4.4 85 85 N 6 9 30.04 1017 9 14.48406 0 0
5:54 am 05:54 Cloudy 28 -2.2 24 -4.4 85 85 N 5 7 30.07 1018 8 12.87472 0 0
6:32 am 06:32 Cloudy 29 -1.7 24 -4.4 82 82 N 9 15 30.12 1020 9 14.48406 0 0
6:54 am 06:54 Cloudy 29 -1.7 24 -4.4 82 82 N 10 17 30.09 1019 10 16.0934 0 0
7:54 am 07:54 Cloudy 28 -2.2 23 -5 81 81 N 10 17 30.11 1020 10 16.0934 0 0
8:12 am 08:12 Cloudy 28 -2.2 23 -5 81 81 N 10 17 30.15 1021 10 16.0934 0 0
8:21 am 08:21 Cloudy 28 -2.2 23 -5 81 81 N 10 17 30.16 1021 10 16.0934 0 0
8:54 am 08:54 Cloudy 29 -1.7 23 -5 78 78 N 13 20 30.13 1020 10 16.0934 0 0
9:54 am 09:54 Cloudy 29 -1.7 22 -5.6 75 75 NNE 18 30 30.14 1021 10 16.0934 0 0
10:54 am 10:54 Cloudy 29 -1.7 22 -5.6 75 75 NNE 13 20 30.17 1022 10 16.0934 0 0
11:35 am 11:35 Cloudy 29 -1.7 22 -5.6 75 75 NNE 12 19 30.18 1022 10 16.0934 0 0
11:54 am 11:54 Cloudy 29 -1.7 22 -5.6 75 75 NE 15 24 30.14 1021 10 16.0934 0 0
12:18 pm 12:18 Cloudy 29 -1.7 22 -5.6 75 75 NNE 12 19 30.16 1021 10 16.0934 0 0
12:45 pm 12:45 Cloudy 29 -1.7 21 -6.1 72 72 NNE 9 15 30.17 1022 10 16.0934 0 0
12:54 pm 12:54 Cloudy 29 -1.7 21 -6.1 72 72 NNE 8 13 30.13 1020 10 16.0934 0 0
1:40 pm 13:40 Cloudy 29 -1.7 21 -6.1 72 72 NNE 12 19 30.13 1020 10 16.0934 0 0
1:54 pm 13:54 Cloudy 29 -1.7 21 -6.1 72 72 NNE 12 19 30.1 1019 10 16.0934 0 0
2:02 pm 14:02 Cloudy 29 -1.7 22 -5.6 75 75 NNE 10 17 30.13 1020 10 16.0934 0 0
2:20 pm 14:20 Cloudy 29 -1.7 21 -6.1 72 72 NE 7 11 30.14 1021 10 16.0934 0 0
2:54 pm 14:54 Cloudy 29 -1.7 21 -6.1 72 72 NNE 9 15 30.1 1019 10 16.0934 0 0
3:54 pm 15:54 Cloudy 29 -1.7 21 -6.1 72 72 NNE 9 15 30.1 1019 10 16.0934 0 0
4:54 pm 16:54 Cloudy 29 -1.7 21 -6.1 72 72 ENE 7 11 30.09 1019 10 16.0934 0 0
5:39 pm 17:39 Cloudy 28 -2.2 21 -6.1 75 75 ENE 9 15 30.1 1019 9 14.48406 0 0
5:54 pm 17:54 Cloudy 28 -2.2 21 -6.1 75 75 ENE 8 13 30.06 1018 10 16.0934 0 0
6:54 pm 18:54 Cloudy 25 -3.9 20 -6.7 81 81 NNE 7 11 30.06 1018 10 16.0934 0 0
7:54 pm 19:54 Cloudy 27 -2.8 21 -6.1 78 78 NNE 7 11 30.05 1018 9 14.48406 0 0
8:54 pm 20:54 Cloudy 28 -2.2 22 -5.6 78 78 ENE 6 9 30.05 1018 10 16.0934 0 0
9:54 pm 21:54 Cloudy 28 -2.2 21 -6.1 75 75 ENE 8 13 30.05 1018 10 16.0934 0 0
10:54 pm 22:54 Cloudy 27 -2.8 21 -6.1 78 78 NNE 6 9 30.05 1018 10 16.0934 0 0
11:09 pm 23:09 Cloudy 27 -2.8 21 -6.1 78 78 NE 6 9 30.08 1019 10 16.0934 0 0
11:54 pm 23:54 Cloudy 27 -2.8 22 -5.6 81 81 ENE 10 17 30.04 1017 10 16.0934 0 0

Powered by AerisWeather